Cosmos 1943 - Orbit

View from above orbital plane
View from above orbital plane
View from above satellite
View from above satellite

Ground track
Ground track

The orbit data is extracted from the following two-line orbital elements,

1 19119U 88039A   13169.02196959 -.00000030  00000-0  91878-5 0  8957
2 19119 071.0058 287.6247 0009462 123.0493 001.2141 14.14850287295547
Epoch (UTC): 18 June 2013 00:31:38
Eccentricity: 0.0009462
inclination: 71.0058°
perigee height: 836 km
apogee height: 849 km
right ascension of ascending node: 287.6247°
argument of perigee: 123.0493°
revolutions per day: 14.14850287
mean anomaly at epoch: 1.2141°
orbit number at epoch: 29554

The dashed part of the orbit path shows where the satellite is in the earth's shadow,  

Developed and maintained by Chris Peat, Heavens-Above GmbH. Please read the updated FAQ before sending e-mail. Imprint. DLR